Погода в Семипалатинске

Погода в Семипалатинске : погода сейчас, прогноз погоды и архив. Всё, что Вы хотите узнать о погоде в Семипалатинске!

Хотите узнать прогноз погоды в Семипалатинске? Тогда Вам сюда: Погода в Семипалатинске

Поиск расширенной информации на нашем сайте:

Полезная информация:

Другие новости

Новости СМИ2

Главная страница сайта

Новости сайта

03.07.2017

Напоминаем, что на нашем специализированном сайте Метеоцентр.Азия вы можете получить высокодетализированные автоматические прогнозы погоды по пунктам России, СНГ и мира в авиационном формате (включающие направление и скорость ветра, видимость, явления погоды, количество и форму облачности, нижнюю и верхнюю границу облачности).

Рекомендуем:

Погода в Семипалатинске - сегодня

Время (UTC), дата Ветер
(°,м/с) 
Видим.   Явления Облачность Т
(°С)
Тd
(°С)
f(%) Тe
(°С)
Pmin
(гПа)
dP
(гПа)
Po
(мм)
O2
(г/м3)
Тmin Tmax R s Состояние
почвы
09 15.09.19 270 (З) 10 км    6/4 1000 м верхняя 
[Cu hum|Ci fib]
+23.7 +7.6 36 +24  1017.3  -1.3  746  275           
12 15.09.19 340 (С) 10 км    8/6 600 м кучево-дожд., средняя 
[Cb calv|Ac trans]
+22 +6.8 37 +22  1017.4  746  277           
15 15.09.19 340 (С) н/о    9/3 600 м кучево-дожд., средняя, верхняя 
[Cb calv|Ac trans|Ci fib]
+16.9 +10.3 65 +20  1018.7  0.9  747  281    +24       
18 15.09.19 340 (С) н/о    8/1 600 м кучево-дожд., средняя, верхняя 
[Cb calv|Ac trans|Ci fib]
+12.3 +8.7 79 +13  1019.3  0.2  747  286    +24       
21 15.09.19 340 (С) н/о    8/1 600 м кучево-дожд., средняя, верхняя 
[Cb calv|Ac trans|Ci fib]
+12.3 +8.7 79 +13  1019.3  0.2  747  286           
00 16.09.19 340 (С) н/о    4/3 1000 м средняя 
[Sc|Ac trans]
+6 +3.1 82 +7  1020.3  0.4  747  294           
03 16.09.19 110 (В) 4000 м  дымка  6/0 средняя, верхняя 
[Ac trans|Ci fib]
+13.6 +8.2 70 +15  1019.7  0.1  747  285           
06 16.09.19 160 (Ю) 10 км    3/0 верхняя 
[Ci fib]
+21.2 +5.9 37 +21  1017.7  -1.4  746  278  +5.3         
09 16.09.19 150 (ЮВ) 10 км    8/6 1000 м средняя, верхняя 
[Cu hum|Ac trans|Ci fib]
+23.8 +3.6 27 +24  1015.5  -1.9  745  276           
12 16.09.19 тихо ()   10 км    9/4 1000 м средняя, верхняя 
[Cu med, cong|Ac trans|Ci fib]
+23.3 +6.4 34 +23  1014.7  -0.9  744  275           
15 16.09.19 тихо ()   н/о    8/0 средняя, верхняя 
[Ac trans|Ci fib]
+12.5 +6.7 68 +13  1015.9  0.4  744  286    +25.2       
18 16.09.19 тихо ()   н/о    9/0 средняя, верхняя 
[Ac trans|Ci fib]
+8.6 +7.3 92 +9  1016.3  0.1  745  290    +25.2       
21 16.09.19 090 (В) н/о    10/10 1000 м 
[Sc]
+10 +7.7 86 +11  1016  -0.2  744  288           
00 17.09.19 140 (ЮВ) н/о    10/10 600 м кучево-дожд. 
[Cb calv]
+10.9 +8.5 85 +12  1017.1  1.1  745  287           
03 17.09.19 160 (Ю) 10 км  в посл. час ливневой дождь  10/10 600 м кучево-дожд. 
[Cb calv]
+14.5 +11.5 82 +19  1018.5  1.7  746  283      0.3     
06 17.09.19 160 (Ю) 10 км  {ливн. осадки}  9/3 600 м кучево-дожд., средняя, верхняя 
[Cb calv|Ac trans|Ci fib]
+23 +7.6 37 +23  1018.2  0.4  747  276  +8.3    0.3     
09 17.09.19 200 (Ю) 10 км    8/6 1000 м средняя, верхняя 
[Cu hum|Ac trans|Ci fib]
+25.3 +6.8 31 +25  1017.3  -0.8  746  274           
12 17.09.19 250 (З) 10 км    9/6 600 м кучево-дожд., средняя 
[Cb calv|Ac trans]
+21.7 +9.2 45 +22  1017.9  0.4  746  277           
15 17.09.19 тихо ()   н/о    6/3 1000 м средняя 
[Sc|Ac trans]
+18.9 +9.5 54 +19  1019.5  1.3  747  280    +25.3  0.0     
18 17.09.19 тихо ()   н/о    9/8 1000 м средняя 
[Sc|Ac trans]
+15.7 +9.1 65 +16  1020  0.3  748  283    +25.3  0.0     
21 17.09.19 тихо ()   н/о    10/10 1000 м 
[Sc]
+14.8 +9.4 70 +15  1020  -0.1  748  284           
00 18.09.19 160 (Ю) н/о    9/9 1000 м 
[Sc]
+15.3 +10.2 72 +18  1020.5  0.5  748  284           
03 18.09.19 180 (Ю) 10 км    8/0 средняя 
[Ac trans]
+19.9 +8.4 47 +21  1020.8  0.7  749  280           
06 18.09.19 230 (ЮЗ) 10 км    9/0 средняя, верхняя 
[Ac trans|Ci fib]
+27.5 +7.1 27 +28  1019.2  -1  748  273  +14.4         
09 18.09.19 230 (ЮЗ) 10 км    6/4 1000 м средняя, верхняя 
[Cu hum|Ac trans|Ci fib]
+28.9 +4.7 21 +29  1017.8  -1.3  747  271           
Время (UTC), дата Ветер
(°,м/с) 
Видим.   Явления Облачность Т
(°С)
Тd
(°С)
f(%) Тe
(°С)
Pmin
(гПа)
dP
(гПа)
Po
(мм)
O2
(г/м3)
Тmin Tmax R s Состояние
почвы

Для получения пояснительной информации подведите курсор к названию столбца.

ПОГОДА в Семипалатинске - архив

Всё, что Вы хотите узнать о погоде в Семипалатинске - удобно и подробно!

Выберите нужную дату (начиная с 1 января 2018* года) и нажмите кнопку "Найти".
Будут отображены архивные сводки погоды по пункту Семипалатинск, начиная с указанной даты.


Отображать данные в формате CSV (для использования в таблицах Excel)


Внимание! Наш архив погоды предназначен исключительно для личного некоммерческого использования в познавательных целях. Если Вам необходимы официальные справки о состоянии погоды (для производственных, юридических, коммерческих и т.п. целей), обращайтесь в органы Росгидромета.

*Примечание: данная дата относится к архиву по метеостанциям СССР (Россия, СНГ, Балтия).
Архив по метеостанциям Зарубежной Европы и Азии (кроме Китая) хранится 10 дней, по другим регионам земного шара (Китай, Африка, Америка, Австралия, Океания) - 1 день.

Семипалатинск - район местоположения метеостанции


Название, широта, долгота, высота метеостанции:
Семипалатинск 50.4°ш. 80.3°д. 196 м над ур. моря [Казахстан]

Дополнительная информация

В oтличие oт бoльшинства пoгoдных сайтoв мы публикуем пoдрoбную метеoинфoрмацию в детальнoм прoфессиoнальнoм фoрмате.

Характеристики температуры и влажнoсти вoздуха измеряются на высoте 2 м в тени вдали oт зданий и деревьев.
Скoрoсть ветра измеряется на высoте 10 м (на урoвне рoста челoвека скoрoсть ветра ниже в 1.5-2 раза). Если метеoстанция нахoдится в гoрoде или в лесу, тo скoрoсть ветра занижена на 2-4 м/с пo сравнению с oткрытым местoм. Скoрoсть ветра над акватoриями крупных рек и oзёр, а также на вершинах хoлмoв на 2-5 м/с выше, чем в oбычных услoвиях.
Атмoсфернoе давление в разных тoчках местнoсти мoжет значительнo oтличаться oт давления на метеoстанции, в зависимoсти oт услoвий рельефа (при пoдъёме на 10 м давление пoнижается примернo на 1 мм рт.ст.).